Weather History for Tampa, FL

Change the Weather History Date:

Wednesday, July 10, 2013

  Actual Average Record
Temperature  
Mean Temperature 81 °F 83 °F  
Max Temperature 89 °F 90 °F 96 °F (1989)
Min Temperature 73 °F 76 °F 68 °F (1990)
Degree Days  
Heating Degree Days 0 0  
Month to date heating degree days 0 0  
Since 1 June heating degree days 0 0  
Since 1 July heating degree days 0 0  
Cooling Degree Days 16 18  
Month to date cooling degree days 175 180  
Year to date cooling degree days 1673 1573  
Since 1 June cooling degree days 698 696  
Growing Degree Days 31 (Base 50)    
Moisture  
Dew Point 72 °F    
Average Humidity 77    
Maximum Humidity 94    
Minimum Humidity 59    
Precipitation  
Precipitation 1.51 in 0.23 in 2.91 in (1920)
Month to date precipitation 4.22 2.49  
Year to date precipitation 24.64 21.37  
Sea Level Pressure  
Sea Level Pressure 30.04 in    
Wind  
Wind Speed 5 mph (WSW)    
Max Wind Speed 21 mph    
Max Gust Speed 30 mph    
Visibility 8 miles    
Events Rain , Thunderstorm    
T = Trace of Precipitation, MM = Missing Value Source: NWS Daily Summary

Daily Weather History Graph

Daily Weather History Graph

Search for Another Location

Airport:

Trip Planner

Search our weather history database for the weather conditions in past years. The results will help you decide how hot, cold, wet, or windy it might be!

Date:

Astronomy

Jul. 10, 2013 Rise Set
Actual Time 6:41 AM EDT 8:29 PM EDT
Civil Twilight 6:15 AM EDT 8:55 PM EDT
Nautical Twilight 5:43 AM EDT 9:27 PM EDT
Astronomical Twilight 5:09 AM EDT 10:01 PM EDT
Moon 8:46 AM EDT (7/10) 9:56 PM EDT (7/10)
Length of Visible Light 14h 40m
Length of Day
13h 48m
Waxing Crescent, 5% of the Moon is Illuminated
Jul 10
Waxing Crescent
Jul 15
First Quarter
Jul 22
Full
Jul 29
Last Quarter
Aug 6
New

Hourly Weather History & Observations

Time (EDT) Temp. Heat Index Dew Point Humidity Pressure Visibility Wind Dir Wind Speed Gust Speed Precip Events Conditions
12:53 AM 81.0 °F 84.4 °F 70.0 °F 69% 30.10 in 10.0 mi Calm Calm - N/A   Partly Cloudy
1:53 AM 80.1 °F 83.6 °F 71.1 °F 74% 30.09 in 10.0 mi Calm Calm - N/A   Partly Cloudy
2:53 AM 79.0 °F - 72.0 °F 79% 30.09 in 10.0 mi ESE 3.5 mph - N/A   Scattered Clouds
3:53 AM 78.1 °F - 72.0 °F 81% 30.09 in 10.0 mi East 3.5 mph - N/A   Partly Cloudy
4:53 AM 78.1 °F - 72.0 °F 81% 30.08 in 10.0 mi Calm Calm - N/A   Scattered Clouds
5:53 AM 78.1 °F - 72.0 °F 81% 30.08 in 10.0 mi Calm Calm - N/A   Partly Cloudy
6:53 AM 77.0 °F - 72.0 °F 84% 30.08 in 10.0 mi Calm Calm - N/A   Partly Cloudy
7:53 AM 79.0 °F - 72.0 °F 79% 30.09 in 10.0 mi Calm Calm - N/A   Scattered Clouds
8:53 AM 81.0 °F 85.8 °F 73.0 °F 77% 30.10 in 10.0 mi Calm Calm - N/A   Scattered Clouds
9:53 AM 82.0 °F 87.4 °F 73.0 °F 74% 30.10 in 10.0 mi WSW 3.5 mph - N/A   Scattered Clouds
10:53 AM 84.0 °F 89.6 °F 72.0 °F 67% 30.09 in 10.0 mi SSW 3.5 mph - N/A   Scattered Clouds
11:53 AM 82.9 °F 88.8 °F 73.0 °F 72% 30.09 in 10.0 mi WSW 6.9 mph - N/A   Scattered Clouds
12:53 PM 84.0 °F 89.6 °F 72.0 °F 67% 30.09 in 10.0 mi SW 6.9 mph - N/A   Mostly Cloudy
1:53 PM 84.9 °F 90.1 °F 71.1 °F 63% 30.06 in 10.0 mi WSW 8.1 mph - N/A   Mostly Cloudy
2:53 PM 87.1 °F 92.8 °F 71.1 °F 59% 30.03 in 10.0 mi WSW 8.1 mph - N/A   Mostly Cloudy
3:53 PM 88.0 °F 95.6 °F 73.0 °F 61% 30.00 in 10.0 mi SW 9.2 mph - N/A   Scattered Clouds
4:53 PM 87.1 °F 94.5 °F 73.0 °F 63% 29.99 in 10.0 mi WSW 10.4 mph - N/A   Scattered Clouds
5:53 PM 88.0 °F 94.7 °F 72.0 °F 59% 29.97 in 10.0 mi West 10.4 mph - N/A   Scattered Clouds
6:53 PM 87.1 °F 93.6 °F 72.0 °F 61% 29.97 in 10.0 mi NW 9.2 mph - N/A   Scattered Clouds
7:39 PM 87.8 °F 93.8 °F 71.6 °F 58% 29.99 in 7.0 mi WNW 8.1 mph - N/A Thunderstorm Thunderstorm
7:49 PM 78.8 °F - 73.4 °F 83% 30.00 in 0.8 mi ESE 12.7 mph 19.6 mph 0.08 in Rain , Thunderstorm Thunderstorms and Rain
7:53 PM 77.0 °F - 73.9 °F 90% 29.99 in 0.8 mi ESE 13.8 mph 24.2 mph 0.19 in Rain , Thunderstorm Heavy Thunderstorms and Rain
7:58 PM 75.2 °F - 73.4 °F 94% 29.98 in 0.8 mi SE 17.3 mph 27.6 mph 0.26 in Rain , Thunderstorm Heavy Thunderstorms with Small Hail
8:04 PM 73.4 °F - 71.6 °F 94% 29.99 in 0.8 mi SE 17.3 mph 29.9 mph 0.62 in Rain , Thunderstorm Heavy Thunderstorms and Rain
8:50 PM 75.2 °F - 71.6 °F 89% 30.00 in 6.0 mi WNW 5.8 mph - 1.32 in Rain , Thunderstorm Light Thunderstorms and Rain
8:53 PM 75.0 °F - 72.0 °F 90% 30.00 in 6.0 mi West 4.6 mph - 1.32 in Rain , Thunderstorm Light Thunderstorms and Rain
9:53 PM 75.9 °F - 73.0 °F 91% 30.03 in 10.0 mi Calm Calm - 0.00 in   Overcast
10:53 PM 75.9 °F - 73.0 °F 91% 30.04 in 10.0 mi North 4.6 mph - N/A   Overcast
11:53 PM 75.0 °F - 73.0 °F 94% 30.05 in 10.0 mi North 4.6 mph - N/A   Mostly Cloudy